Time,TemperatureF,DewpointF,PressureIn,WindDirection,WindDirectionDegrees,WindSpeedMPH,WindSpeedGustMPH,Humidity,HourlyPrecipIn,Conditions,Clouds,dailyrainin,SoftwareType,DateUTC
2013-03-07 00:02:00,26.2,21.2,30.16,ESE,103,4.0,4.0,81,0.00,,SKC,0.00,VWS V14.01,2013-03-07 06:02:00,
2013-03-07 00:07:00,26.2,21.2,30.16,East,99,4.0,6.0,81,0.00,,SKC,0.00,VWS V14.01,2013-03-07 06:07:00,
2013-03-07 00:12:00,26.1,21.1,30.16,East,96,3.0,7.0,81,0.00,,SKC,0.00,VWS V14.01,2013-03-07 06:12:00,
2013-03-07 00:17:00,26.1,21.1,30.16,East,95,2.0,5.0,81,0.00,,SKC,0.00,VWS V14.01,2013-03-07 06:17:00,
2013-03-07 00:22:00,26.0,21.0,30.16,East,95,4.0,5.0,81,0.00,,SKC,0.00,VWS V14.01,2013-03-07 06:22:00,
2013-03-07 00:27:00,25.8,21.1,30.16,East,95,4.0,5.0,82,0.00,,SKC,0.00,VWS V14.01,2013-03-07 06:27:00,
2013-03-07 00:32:00,25.7,21.0,30.16,East,95,3.0,6.0,82,0.00,,SKC,0.00,VWS V14.01,2013-03-07 06:32:00,
2013-03-07 00:37:00,25.7,21.0,30.17,East,94,3.0,5.0,82,0.00,,SKC,0.00,VWS V14.01,2013-03-07 06:37:00,
2013-03-07 00:42:00,25.7,21.0,30.17,East,94,2.0,5.0,82,0.00,,SKC,0.00,VWS V14.01,2013-03-07 06:42:00,
2013-03-07 00:47:00,25.6,21.2,30.17,East,94,4.0,4.0,83,0.00,,SKC,0.00,VWS V14.01,2013-03-07 06:47:00,
2013-03-07 00:52:00,25.5,21.1,30.17,East,94,3.0,5.0,83,0.00,,SKC,0.00,VWS V14.01,2013-03-07 06:52:00,
2013-03-07 00:57:00,25.4,21.0,30.17,East,94,0.0,4.0,83,0.00,,SKC,0.00,VWS V14.01,2013-03-07 06:57:00,
2013-03-07 01:02:00,25.3,20.9,30.17,East,94,4.0,5.0,83,0.00,,SKC,0.00,VWS V14.01,2013-03-07 07:02:00,
2013-03-07 01:07:00,25.2,20.8,30.17,East,93,3.0,6.0,83,0.00,,SKC,0.00,VWS V14.01,2013-03-07 07:07:00,
2013-03-07 01:12:00,25.3,20.9,30.16,East,93,3.0,6.0,83,0.00,,SKC,0.00,VWS V14.01,2013-03-07 07:12:00,
2013-03-07 01:17:00,25.2,20.8,30.17,East,93,1.0,6.0,83,0.00,,SKC,0.00,VWS V14.01,2013-03-07 07:17:00,
2013-03-07 01:22:00,25.2,20.8,30.17,East,93,4.0,6.0,83,0.00,,SKC,0.00,VWS V14.01,2013-03-07 07:22:00,
2013-03-07 01:27:00,25.2,20.8,30.17,East,92,3.0,5.0,83,0.00,,SKC,0.00,VWS V14.01,2013-03-07 07:27:00,
2013-03-07 01:32:00,25.2,20.8,30.17,East,92,2.0,5.0,83,0.00,,SKC,0.00,VWS V14.01,2013-03-07 07:32:00,
2013-03-07 01:37:00,25.2,20.8,30.17,East,92,2.0,5.0,83,0.00,,SKC,0.00,VWS V14.01,2013-03-07 07:37:00,
2013-03-07 01:42:00,25.1,20.7,30.17,East,93,5.0,6.0,83,0.00,,SKC,0.00,VWS V14.01,2013-03-07 07:42:00,
2013-03-07 01:47:00,25.2,20.8,30.17,East,92,3.0,6.0,83,0.00,,SKC,0.00,VWS V14.01,2013-03-07 07:47:00,
2013-03-07 01:52:00,25.1,20.7,30.17,East,94,5.0,9.0,83,0.00,,SKC,0.00,VWS V14.01,2013-03-07 07:52:00,
2013-03-07 01:57:00,25.1,20.7,30.17,East,94,3.0,6.0,83,0.00,,SKC,0.00,VWS V14.01,2013-03-07 07:57:00,
2013-03-07 02:02:00,25.1,20.7,30.16,East,96,5.0,7.0,83,0.00,,SKC,0.00,VWS V14.01,2013-03-07 08:02:00,
2013-03-07 02:07:00,25.0,20.6,30.16,East,96,6.0,7.0,83,0.00,,SKC,0.00,VWS V14.01,2013-03-07 08:07:00,
2013-03-07 02:12:00,25.0,20.6,30.16,East,96,4.0,7.0,83,0.00,,SKC,0.00,VWS V14.01,2013-03-07 08:12:00,
2013-03-07 02:17:00,25.0,20.3,30.16,East,100,4.0,9.0,82,0.00,,SKC,0.00,VWS V14.01,2013-03-07 08:17:00,
2013-03-07 02:22:00,25.0,20.3,30.16,East,99,4.0,9.0,82,0.00,,SKC,0.00,VWS V14.01,2013-03-07 08:22:00,
2013-03-07 02:27:00,24.9,20.2,30.16,East,101,3.0,4.0,82,0.00,,SKC,0.00,VWS V14.01,2013-03-07 08:27:00,
2013-03-07 02:32:00,24.8,20.1,30.16,East,101,3.0,5.0,82,0.00,,SKC,0.00,VWS V14.01,2013-03-07 08:32:00,
2013-03-07 02:38:00,24.7,20.0,30.15,ESE,102,2.0,5.0,82,0.00,,SKC,0.00,VWS V14.01,2013-03-07 08:38:00,
2013-03-07 02:43:00,24.6,19.9,30.16,ESE,103,2.0,5.0,82,0.00,,SKC,0.00,VWS V14.01,2013-03-07 08:43:00,
2013-03-07 02:48:00,24.5,19.8,30.16,ESE,103,3.0,4.0,82,0.00,,SKC,0.00,VWS V14.01,2013-03-07 08:48:00,
2013-03-07 02:53:00,24.4,20.0,30.16,ESE,104,2.0,5.0,83,0.00,,SKC,0.00,VWS V14.01,2013-03-07 08:53:00,
2013-03-07 02:58:00,24.3,19.9,30.16,ESE,103,4.0,5.0,83,0.00,,SKC,0.00,VWS V14.01,2013-03-07 08:58:00,
2013-03-07 03:03:00,24.3,19.9,30.15,ESE,105,5.0,9.0,83,0.00,,SKC,0.00,VWS V14.01,2013-03-07 09:03:00,
2013-03-07 03:08:00,24.3,19.9,30.15,ESE,103,5.0,6.0,83,0.00,,SKC,0.00,VWS V14.01,2013-03-07 09:08:00,
2013-03-07 03:13:00,24.3,19.9,30.15,ESE,103,3.0,6.0,83,0.00,,SKC,0.00,VWS V14.01,2013-03-07 09:13:00,
2013-03-07 03:18:00,24.3,19.9,30.15,ESE,104,5.0,6.0,83,0.00,,SKC,0.00,VWS V14.01,2013-03-07 09:18:00,
2013-03-07 03:23:00,24.3,19.9,30.15,ESE,103,5.0,9.0,83,0.00,,SKC,0.00,VWS V14.01,2013-03-07 09:23:00,
2013-03-07 03:28:00,24.3,19.9,30.15,East,99,4.0,6.0,83,0.00,,SKC,0.00,VWS V14.01,2013-03-07 09:28:00,
2013-03-07 03:33:00,24.2,20.1,30.14,ESE,106,7.0,8.0,84,0.00,,SKC,0.00,VWS V14.01,2013-03-07 09:33:00,
2013-03-07 03:38:00,24.2,20.1,30.14,ESE,104,4.0,9.0,84,0.00,,SKC,0.00,VWS V14.01,2013-03-07 09:38:00,
2013-03-07 03:43:00,24.2,20.1,30.14,East,101,5.0,9.0,84,0.00,,SKC,0.00,VWS V14.01,2013-03-07 09:43:00,
2013-03-07 03:48:00,24.1,20.0,30.14,East,101,4.0,7.0,84,0.00,,SKC,0.00,VWS V14.01,2013-03-07 09:48:00,
2013-03-07 03:53:00,24.1,20.0,30.13,East,98,4.0,7.0,84,0.00,,SKC,0.00,VWS V14.01,2013-03-07 09:53:00,
2013-03-07 03:58:00,24.0,19.9,30.13,East,96,4.0,7.0,84,0.00,,SKC,0.00,VWS V14.01,2013-03-07 09:58:00,
2013-03-07 04:03:00,24.0,19.9,30.13,East,94,5.0,7.0,84,0.00,,SKC,0.00,VWS V14.01,2013-03-07 10:03:00,
2013-03-07 04:08:00,24.0,19.9,30.13,East,95,4.0,7.0,84,0.00,,SKC,0.00,VWS V14.01,2013-03-07 10:08:00,
2013-03-07 04:13:00,24.0,19.9,30.13,East,95,4.0,8.0,84,0.00,,SKC,0.00,VWS V14.01,2013-03-07 10:13:00,
2013-03-07 04:18:00,24.0,19.9,30.14,East,96,5.0,8.0,84,0.00,,SKC,0.00,VWS V14.01,2013-03-07 10:18:00,
2013-03-07 04:23:00,24.0,19.9,30.14,East,96,3.0,8.0,84,0.00,,SKC,0.00,VWS V14.01,2013-03-07 10:23:00,
2013-03-07 04:28:00,24.0,19.9,30.14,East,96,4.0,8.0,84,0.00,,SKC,0.00,VWS V14.01,2013-03-07 10:28:00,
2013-03-07 04:33:00,24.0,19.9,30.14,East,96,3.0,8.0,84,0.00,,SKC,0.00,VWS V14.01,2013-03-07 10:33:00,
2013-03-07 04:38:00,23.9,19.8,30.14,East,97,2.0,6.0,84,0.00,,SKC,0.00,VWS V14.01,2013-03-07 10:38:00,
2013-03-07 04:43:00,23.9,19.8,30.14,East,98,2.0,6.0,84,0.00,,SKC,0.00,VWS V14.01,2013-03-07 10:43:00,
2013-03-07 04:48:00,23.9,19.8,30.13,East,98,3.0,6.0,84,0.00,,SKC,0.00,VWS V14.01,2013-03-07 10:48:00,
2013-03-07 04:53:00,23.8,20.0,30.13,East,98,3.0,6.0,85,0.00,,SKC,0.00,VWS V14.01,2013-03-07 10:53:00,
2013-03-07 04:58:00,23.8,20.0,30.13,East,98,4.0,7.0,85,0.00,,SKC,0.00,VWS V14.01,2013-03-07 10:58:00,
2013-03-07 05:03:00,23.8,20.0,30.13,East,100,7.0,8.0,85,0.00,,SKC,0.00,VWS V14.01,2013-03-07 11:03:00,
2013-03-07 05:08:00,23.8,20.0,30.13,East,98,3.0,7.0,85,0.00,,SKC,0.00,VWS V14.01,2013-03-07 11:08:00,
2013-03-07 05:13:00,23.8,20.0,30.13,East,95,4.0,10.0,85,0.00,,SKC,0.00,VWS V14.01,2013-03-07 11:13:00,
2013-03-07 05:18:00,23.8,20.0,30.14,East,94,2.0,7.0,85,0.00,,SKC,0.00,VWS V14.01,2013-03-07 11:18:00,
2013-03-07 05:23:00,23.9,20.1,30.14,East,96,5.0,7.0,85,0.00,,SKC,0.00,VWS V14.01,2013-03-07 11:23:00,
2013-03-07 05:28:00,23.9,20.1,30.14,East,96,5.0,6.0,85,0.00,,SKC,0.00,VWS V14.01,2013-03-07 11:28:00,
2013-03-07 05:33:00,23.9,20.1,30.14,East,100,3.0,7.0,85,0.00,,SKC,0.00,VWS V14.01,2013-03-07 11:33:00,
2013-03-07 05:38:00,23.9,20.1,30.14,East,97,6.0,7.0,85,0.00,,SKC,0.00,VWS V14.01,2013-03-07 11:38:00,
2013-03-07 05:44:00,24.0,19.9,30.13,East,96,3.0,12.0,84,0.00,,SKC,0.00,VWS V14.01,2013-03-07 11:44:00,
2013-03-07 05:49:00,23.9,19.8,30.14,East,97,3.0,8.0,84,0.00,,SKC,0.00,VWS V14.01,2013-03-07 11:49:00,
2013-03-07 05:54:00,23.9,19.8,30.13,East,95,5.0,8.0,84,0.00,,SKC,0.00,VWS V14.01,2013-03-07 11:54:00,
2013-03-07 05:59:00,23.9,19.8,30.13,East,94,5.0,8.0,84,0.00,,SKC,0.00,VWS V14.01,2013-03-07 11:59:00,
2013-03-07 06:04:00,23.9,19.8,30.13,East,94,2.0,6.0,84,0.00,,SKC,0.00,VWS V14.01,2013-03-07 12:04:00,
2013-03-07 06:09:00,23.9,19.8,30.13,East,96,7.0,7.0,84,0.00,,SKC,0.00,VWS V14.01,2013-03-07 12:09:00,
2013-03-07 06:14:00,24.0,19.9,30.13,East,98,6.0,11.0,84,0.00,,SKC,0.00,VWS V14.01,2013-03-07 12:14:00,
2013-03-07 06:19:00,24.0,19.9,30.12,East,94,4.0,10.0,84,0.00,,SKC,0.00,VWS V14.01,2013-03-07 12:19:00,
2013-03-07 06:24:00,24.0,19.9,30.12,East,96,3.0,3.0,84,0.00,,SKC,0.00,VWS V14.01,2013-03-07 12:24:00,
2013-03-07 06:29:00,24.0,19.9,30.12,East,95,5.0,9.0,84,0.00,,SKC,0.00,VWS V14.01,2013-03-07 12:29:00,
2013-03-07 06:34:00,24.1,20.0,30.13,East,94,5.0,6.0,84,0.00,,SKC,0.00,VWS V14.01,2013-03-07 12:34:00,
2013-03-07 06:39:00,24.1,20.0,30.13,East,98,4.0,9.0,84,0.00,,SKC,0.00,VWS V14.01,2013-03-07 12:39:00,
2013-03-07 06:44:00,24.2,20.1,30.13,East,97,4.0,9.0,84,0.00,,SKC,0.00,VWS V14.01,2013-03-07 12:44:00,
2013-03-07 06:49:00,24.2,20.1,30.13,East,98,6.0,9.0,84,0.00,,SKC,0.00,VWS V14.01,2013-03-07 12:49:00,
2013-03-07 06:54:00,24.3,20.2,30.13,East,97,4.0,5.0,84,0.00,,SKC,0.00,VWS V14.01,2013-03-07 12:54:00,
2013-03-07 06:59:00,24.4,20.3,30.13,East,97,5.0,9.0,84,0.00,,SKC,0.00,VWS V14.01,2013-03-07 12:59:00,
2013-03-07 07:04:00,24.5,20.4,30.13,East,94,4.0,5.0,84,0.00,,SKC,0.00,VWS V14.01,2013-03-07 13:04:00,
2013-03-07 07:09:00,24.6,20.5,30.13,East,98,6.0,10.0,84,0.00,,SKC,0.00,VWS V14.01,2013-03-07 13:09:00,
2013-03-07 07:14:00,24.7,20.6,30.13,East,92,2.0,4.0,84,0.00,,SKC,0.00,VWS V14.01,2013-03-07 13:14:00,
2013-03-07 07:19:00,24.9,20.5,30.13,East,92,5.0,7.0,83,0.00,,SKC,0.00,VWS V14.01,2013-03-07 13:19:00,
2013-03-07 07:24:00,25.1,20.7,30.13,East,93,6.0,6.0,83,0.00,,SKC,0.00,VWS V14.01,2013-03-07 13:24:00,
2013-03-07 07:29:00,25.3,20.9,30.13,East,94,5.0,10.0,83,0.00,,SKC,0.00,VWS V14.01,2013-03-07 13:29:00,
2013-03-07 07:34:00,25.5,21.1,30.13,East,100,7.0,8.0,83,0.00,,SKC,0.00,VWS V14.01,2013-03-07 13:34:00,
2013-03-07 07:39:00,25.8,21.4,30.13,East,99,7.0,8.0,83,0.00,,SKC,0.00,VWS V14.01,2013-03-07 13:39:00,
2013-03-07 07:44:00,26.1,21.4,30.13,East,101,5.0,7.0,82,0.00,,SKC,0.00,VWS V14.01,2013-03-07 13:44:00,
2013-03-07 07:49:00,26.3,21.6,30.13,ESE,114,4.0,12.0,82,0.00,,SKC,0.00,VWS V14.01,2013-03-07 13:49:00,
2013-03-07 07:54:00,26.7,22.0,30.13,ESE,105,5.0,7.0,82,0.00,,SKC,0.00,VWS V14.01,2013-03-07 13:54:00,
2013-03-07 07:59:00,27.0,22.0,30.13,East,101,7.0,9.0,81,0.00,,SKC,0.00,VWS V14.01,2013-03-07 13:59:00,
2013-03-07 08:04:00,27.4,22.4,30.14,ESE,107,6.0,10.0,81,0.00,,SKC,0.00,VWS V14.01,2013-03-07 14:04:00,
2013-03-07 08:09:00,27.7,22.4,30.14,ESE,103,6.0,10.0,80,0.00,,SKC,0.00,VWS V14.01,2013-03-07 14:09:00,
2013-03-07 08:14:00,28.1,22.4,30.14,ESE,103,4.0,7.0,79,0.00,,SKC,0.00,VWS V14.01,2013-03-07 14:14:00,
2013-03-07 08:19:00,28.4,22.7,30.14,ESE,110,4.0,9.0,79,0.00,,SKC,0.00,VWS V14.01,2013-03-07 14:19:00,
2013-03-07 08:24:00,28.8,23.1,30.14,East,101,5.0,10.0,79,0.00,,SKC,0.00,VWS V14.01,2013-03-07 14:24:00,
2013-03-07 08:29:00,29.2,23.2,30.14,ESE,109,4.0,11.0,78,0.00,,SKC,0.00,VWS V14.01,2013-03-07 14:29:00,
2013-03-07 08:35:00,29.6,23.6,30.14,ESE,109,6.0,9.0,78,0.00,,SKC,0.00,VWS V14.01,2013-03-07 14:35:00,
2013-03-07 08:40:00,29.9,23.6,30.14,ESE,114,6.0,10.0,77,0.00,,SKC,0.00,VWS V14.01,2013-03-07 14:40:00,
2013-03-07 08:45:00,30.3,23.7,30.14,East,98,5.0,7.0,76,0.00,,SKC,0.00,VWS V14.01,2013-03-07 14:45:00,
2013-03-07 08:50:00,30.6,23.6,30.14,East,95,9.0,11.0,75,0.00,,SKC,0.00,VWS V14.01,2013-03-07 14:50:00,
2013-03-07 08:55:00,30.9,24.2,30.14,ESE,107,4.0,7.0,76,0.00,,SKC,0.00,VWS V14.01,2013-03-07 14:55:00,
2013-03-07 09:00:00,31.4,24.7,30.14,ESE,122,6.0,11.0,76,0.00,,SKC,0.00,VWS V14.01,2013-03-07 15:00:00,
2013-03-07 09:05:00,31.9,24.9,30.14,SE,126,4.0,10.0,75,0.00,,SKC,0.00,VWS V14.01,2013-03-07 15:05:00,
2013-03-07 09:10:00,32.4,25.0,30.14,ESE,123,5.0,11.0,74,0.00,,SKC,0.00,VWS V14.01,2013-03-07 15:10:00,
2013-03-07 09:15:00,33.0,25.6,30.14,ESE,116,5.0,5.0,74,0.00,,SKC,0.00,VWS V14.01,2013-03-07 15:15:00,
2013-03-07 09:20:00,33.5,25.8,30.14,ESE,115,1.0,10.0,73,0.00,,SKC,0.00,VWS V14.01,2013-03-07 15:20:00,
2013-03-07 09:25:00,34.1,26.0,30.14,ESE,108,5.0,7.0,72,0.00,,SKC,0.00,VWS V14.01,2013-03-07 15:25:00,
2013-03-07 09:30:00,34.4,25.6,30.14,ESE,104,6.0,11.0,70,0.00,,SKC,0.00,VWS V14.01,2013-03-07 15:30:00,
2013-03-07 09:35:00,34.4,25.6,30.13,ESE,121,5.0,9.0,70,0.00,,SKC,0.00,VWS V14.01,2013-03-07 15:35:00,
2013-03-07 09:40:00,35.0,26.2,30.13,SE,131,10.0,10.0,70,0.00,,SKC,0.00,VWS V14.01,2013-03-07 15:40:00,
2013-03-07 09:45:00,35.6,26.5,30.13,ESE,105,4.0,8.0,69,0.00,,SKC,0.00,VWS V14.01,2013-03-07 15:45:00,
2013-03-07 09:50:00,36.0,26.5,30.14,ESE,109,7.0,10.0,68,0.00,,SKC,0.00,VWS V14.01,2013-03-07 15:50:00,
2013-03-07 09:55:00,36.5,27.0,30.13,ESE,123,4.0,10.0,68,0.00,,SKC,0.00,VWS V14.01,2013-03-07 15:55:00,
2013-03-07 10:00:00,37.0,26.7,30.13,ESE,108,6.0,11.0,66,0.00,,SKC,0.00,VWS V14.01,2013-03-07 16:00:00,
2013-03-07 10:05:00,37.4,26.7,30.12,ESE,120,4.0,9.0,65,0.00,,SKC,0.00,VWS V14.01,2013-03-07 16:05:00,
2013-03-07 10:10:00,37.7,27.4,30.13,ESE,119,7.0,11.0,66,0.00,,SKC,0.00,VWS V14.01,2013-03-07 16:10:00,
2013-03-07 10:15:00,38.2,27.5,30.12,SE,130,2.0,7.0,65,0.00,,SKC,0.00,VWS V14.01,2013-03-07 16:15:00,
2013-03-07 10:20:00,38.8,27.3,30.13,ESE,121,8.0,10.0,63,0.00,,SKC,0.00,VWS V14.01,2013-03-07 16:20:00,
2013-03-07 10:25:00,39.4,27.9,30.13,SE,138,2.0,9.0,63,0.00,,SKC,0.00,VWS V14.01,2013-03-07 16:25:00,
2013-03-07 10:30:00,40.0,28.0,30.12,SE,145,8.0,10.0,62,0.00,,SKC,0.00,VWS V14.01,2013-03-07 16:30:00,
2013-03-07 10:35:00,40.5,28.1,30.12,ESE,121,5.0,7.0,61,0.00,,SKC,0.00,VWS V14.01,2013-03-07 16:35:00,
2013-03-07 10:40:00,40.9,28.1,30.12,East,96,11.0,11.0,60,0.00,,SKC,0.00,VWS V14.01,2013-03-07 16:40:00,
2013-03-07 10:45:00,41.2,28.8,30.12,East,98,7.0,9.0,61,0.00,,SKC,0.00,VWS V14.01,2013-03-07 16:45:00,
2013-03-07 10:50:00,41.8,29.0,30.12,ESE,106,7.0,13.0,60,0.00,,SKC,0.00,VWS V14.01,2013-03-07 16:50:00,
2013-03-07 10:55:00,42.0,27.9,30.12,ESE,111,4.0,10.0,57,0.00,,SKC,0.00,VWS V14.01,2013-03-07 16:55:00,
2013-03-07 11:00:00,42.4,28.7,30.12,East,94,9.0,10.0,58,0.00,,SKC,0.00,VWS V14.01,2013-03-07 17:00:00,
2013-03-07 11:05:00,42.7,29.4,30.12,East,98,5.0,9.0,59,0.00,,SKC,0.00,VWS V14.01,2013-03-07 17:05:00,
2013-03-07 11:10:00,43.1,28.9,30.12,ESE,103,5.0,14.0,57,0.00,,SKC,0.00,VWS V14.01,2013-03-07 17:10:00,
2013-03-07 11:15:00,43.7,29.5,30.11,SE,142,10.0,10.0,57,0.00,,SKC,0.00,VWS V14.01,2013-03-07 17:15:00,
2013-03-07 11:20:00,44.2,29.1,30.11,ESE,115,6.0,12.0,55,0.00,,SKC,0.00,VWS V14.01,2013-03-07 17:20:00,
2013-03-07 11:25:00,44.5,29.4,30.12,ESE,103,3.0,8.0,55,0.00,,SKC,0.00,VWS V14.01,2013-03-07 17:25:00,
2013-03-07 11:30:00,45.0,29.4,30.11,SSE,160,5.0,11.0,54,0.00,,SKC,0.00,VWS V14.01,2013-03-07 17:30:00,
2013-03-07 11:35:00,45.4,29.7,30.11,East,97,10.0,10.0,54,0.00,,SKC,0.00,VWS V14.01,2013-03-07 17:35:00,
2013-03-07 11:41:00,45.6,29.9,30.10,ESE,116,6.0,11.0,54,0.00,,SKC,0.00,VWS V14.01,2013-03-07 17:41:00,
2013-03-07 11:46:00,46.2,29.6,30.10,ESE,117,8.0,13.0,52,0.00,,SKC,0.00,VWS V14.01,2013-03-07 17:46:00,
2013-03-07 11:51:00,46.6,30.4,30.10,East,90,4.0,13.0,53,0.00,,SKC,0.00,VWS V14.01,2013-03-07 17:51:00,
2013-03-07 11:56:00,46.9,30.7,30.09,East,92,7.0,7.0,53,0.00,,SKC,0.00,VWS V14.01,2013-03-07 17:56:00,
2013-03-07 12:02:00,47.4,30.2,30.09,ESE,110,6.0,6.0,51,0.00,,SKC,0.00,VWS V14.01,2013-03-07 18:02:00,
2013-03-07 12:07:00,47.7,30.5,30.09,SE,131,4.0,10.0,51,0.00,,SKC,0.00,VWS V14.01,2013-03-07 18:07:00,
2013-03-07 12:12:00,47.9,30.7,30.09,ESE,109,6.0,11.0,51,0.00,,SKC,0.00,VWS V14.01,2013-03-07 18:12:00,
2013-03-07 12:17:00,48.1,29.9,30.08,East,97,5.0,11.0,49,0.00,,SKC,0.00,VWS V14.01,2013-03-07 18:17:00,
2013-03-07 12:22:00,48.4,30.6,30.08,ESE,109,7.0,11.0,50,0.00,,SKC,0.00,VWS V14.01,2013-03-07 18:22:00,
2013-03-07 12:27:00,48.5,30.7,30.08,SE,126,10.0,14.0,50,0.00,,SKC,0.00,VWS V14.01,2013-03-07 18:27:00,
2013-03-07 12:32:00,48.8,31.0,30.08,SE,130,5.0,14.0,50,0.00,,SKC,0.00,VWS V14.01,2013-03-07 18:32:00,
2013-03-07 12:37:00,48.7,30.4,30.07,East,98,6.0,11.0,49,0.00,,SKC,0.00,VWS V14.01,2013-03-07 18:37:00,
2013-03-07 12:42:00,48.6,30.8,30.08,ESE,103,5.0,11.0,50,0.00,,SKC,0.00,VWS V14.01,2013-03-07 18:42:00,
2013-03-07 12:47:00,49.2,31.4,30.07,ESE,107,8.0,11.0,50,0.00,,SKC,0.00,VWS V14.01,2013-03-07 18:47:00,
2013-03-07 12:52:00,49.2,30.9,30.07,ESE,122,6.0,11.0,49,0.00,,SKC,0.00,VWS V14.01,2013-03-07 18:52:00,
2013-03-07 12:57:00,49.5,31.6,30.07,ESE,107,6.0,12.0,50,0.00,,SKC,0.00,VWS V14.01,2013-03-07 18:57:00,
2013-03-07 13:02:00,50.3,31.9,30.06,SE,134,9.0,12.0,49,0.00,,SKC,0.00,VWS V14.01,2013-03-07 19:02:00,
2013-03-07 13:07:00,50.9,31.4,30.06,East,100,4.0,11.0,47,0.00,,SKC,0.00,VWS V14.01,2013-03-07 19:07:00,
2013-03-07 13:12:00,51.1,32.1,30.06,ESE,115,7.0,11.0,48,0.00,,SKC,0.00,VWS V14.01,2013-03-07 19:12:00,
2013-03-07 13:17:00,51.5,31.4,30.06,East,98,7.0,12.0,46,0.00,,SKC,0.00,VWS V14.01,2013-03-07 19:17:00,
2013-03-07 13:22:00,51.6,31.5,30.05,ESE,119,8.0,12.0,46,0.00,,SKC,0.00,VWS V14.01,2013-03-07 19:22:00,
2013-03-07 13:28:00,51.8,31.7,30.04,SSE,153,9.0,11.0,46,0.00,,SKC,0.00,VWS V14.01,2013-03-07 19:28:00,
2013-03-07 13:33:00,52.2,32.1,30.04,East,99,9.0,13.0,46,0.00,,SKC,0.00,VWS V14.01,2013-03-07 19:33:00,
2013-03-07 13:38:00,52.3,32.2,30.05,ESE,122,6.0,11.0,46,0.00,,SKC,0.00,VWS V14.01,2013-03-07 19:38:00,
2013-03-07 13:43:00,52.3,32.2,30.04,ESE,122,3.0,11.0,46,0.00,,SKC,0.00,VWS V14.01,2013-03-07 19:43:00,
2013-03-07 13:48:00,52.6,32.4,30.04,ESE,122,9.0,9.0,46,0.00,,SKC,0.00,VWS V14.01,2013-03-07 19:48:00,
2013-03-07 13:53:00,52.8,32.1,30.03,SE,141,13.0,13.0,45,0.00,,SKC,0.00,VWS V14.01,2013-03-07 19:53:00,
2013-03-07 13:58:00,53.1,32.3,30.03,East,96,7.0,11.0,45,0.00,,SKC,0.00,VWS V14.01,2013-03-07 19:58:00,
2013-03-07 14:03:00,53.1,32.3,30.03,SE,136,12.0,12.0,45,0.00,,SKC,0.00,VWS V14.01,2013-03-07 20:03:00,
2013-03-07 14:08:00,53.4,31.5,30.03,SE,130,15.0,15.0,43,0.00,,SKC,0.00,VWS V14.01,2013-03-07 20:08:00,
2013-03-07 14:13:00,53.8,31.3,30.03,SSE,153,4.0,15.0,42,0.00,,SKC,0.00,VWS V14.01,2013-03-07 20:13:00,
2013-03-07 14:18:00,53.9,32.5,30.02,ESE,117,15.0,15.0,44,0.00,,SKC,0.00,VWS V14.01,2013-03-07 20:18:00,
2013-03-07 14:23:00,53.8,31.3,30.02,ESE,116,8.0,16.0,42,0.00,,SKC,0.00,VWS V14.01,2013-03-07 20:23:00,
2013-03-07 14:28:00,53.5,31.6,30.02,SE,145,6.0,13.0,43,0.00,,SKC,0.00,VWS V14.01,2013-03-07 20:28:00,
2013-03-07 14:33:00,53.4,31.5,30.02,ESE,118,9.0,16.0,43,0.00,,SKC,0.00,VWS V14.01,2013-03-07 20:33:00,
2013-03-07 14:38:00,53.2,31.3,30.02,SE,145,5.0,17.0,43,0.00,,SKC,0.00,VWS V14.01,2013-03-07 20:38:00,
2013-03-07 14:43:00,53.2,31.9,30.01,ESE,106,7.0,17.0,44,0.00,,SKC,0.00,VWS V14.01,2013-03-07 20:43:00,
2013-03-07 14:48:00,53.5,32.1,30.01,South,170,5.0,13.0,44,0.00,,SKC,0.00,VWS V14.01,2013-03-07 20:48:00,
2013-03-07 14:53:00,53.7,31.8,30.02,SE,134,3.0,13.0,43,0.00,,SKC,0.00,VWS V14.01,2013-03-07 20:53:00,
2013-03-07 14:59:00,53.5,32.7,30.01,ESE,119,7.0,16.0,45,0.00,,SKC,0.00,VWS V14.01,2013-03-07 20:59:00,
2013-03-07 15:04:00,53.2,32.4,30.01,SE,133,6.0,16.0,45,0.00,,SKC,0.00,VWS V14.01,2013-03-07 21:04:00,
2013-03-07 15:09:00,53.4,32.6,30.01,SSE,156,10.0,12.0,45,0.00,,SKC,0.00,VWS V14.01,2013-03-07 21:09:00,
2013-03-07 15:14:00,53.5,32.7,30.01,SSE,150,11.0,14.0,45,0.00,,SKC,0.00,VWS V14.01,2013-03-07 21:14:00,
2013-03-07 15:19:00,53.5,33.2,30.01,South,180,10.0,14.0,46,0.00,,SKC,0.00,VWS V14.01,2013-03-07 21:19:00,
2013-03-07 15:24:00,53.4,32.6,30.01,SSE,163,8.0,16.0,45,0.00,,SKC,0.00,VWS V14.01,2013-03-07 21:24:00,
2013-03-07 15:29:00,53.4,33.7,30.01,East,100,13.0,13.0,47,0.00,,SKC,0.00,VWS V14.01,2013-03-07 21:29:00,
2013-03-07 15:34:00,53.4,33.2,30.01,SE,141,12.0,17.0,46,0.00,,SKC,0.00,VWS V14.01,2013-03-07 21:34:00,
2013-03-07 15:39:00,53.3,33.6,30.01,SE,127,12.0,15.0,47,0.00,,SKC,0.00,VWS V14.01,2013-03-07 21:39:00,
2013-03-07 15:44:00,53.2,33.5,30.01,SE,130,6.0,15.0,47,0.00,,SKC,0.00,VWS V14.01,2013-03-07 21:44:00,
2013-03-07 15:49:00,53.4,33.7,30.01,ESE,113,7.0,13.0,47,0.00,,SKC,0.00,VWS V14.01,2013-03-07 21:49:00,
2013-03-07 15:54:00,53.1,34.0,30.01,ESE,118,5.0,5.0,48,0.00,,SKC,0.00,VWS V14.01,2013-03-07 21:54:00,
2013-03-07 15:59:00,53.3,34.1,30.01,ESE,103,9.0,11.0,48,0.00,,SKC,0.00,VWS V14.01,2013-03-07 21:59:00,
2013-03-07 16:04:00,53.3,34.1,30.01,ESE,107,5.0,7.0,48,0.00,,SKC,0.00,VWS V14.01,2013-03-07 22:04:00,
2013-03-07 16:09:00,53.1,34.5,30.00,ESE,109,3.0,12.0,49,0.00,,SKC,0.00,VWS V14.01,2013-03-07 22:09:00,
2013-03-07 16:14:00,53.1,34.5,30.00,East,98,4.0,4.0,49,0.00,,SKC,0.00,VWS V14.01,2013-03-07 22:14:00,
2013-03-07 16:19:00,53.1,34.5,30.00,SE,132,3.0,13.0,49,0.00,,SKC,0.00,VWS V14.01,2013-03-07 22:19:00,
2013-03-07 16:24:00,52.8,34.7,30.00,East,96,6.0,7.0,50,0.00,,SKC,0.00,VWS V14.01,2013-03-07 22:24:00,
2013-03-07 16:29:00,52.4,34.3,30.00,ESE,104,5.0,11.0,50,0.00,,SKC,0.00,VWS V14.01,2013-03-07 22:29:00,
2013-03-07 16:34:00,52.1,34.5,30.00,ESE,104,5.0,7.0,51,0.00,,SKC,0.00,VWS V14.01,2013-03-07 22:34:00,
2013-03-07 16:39:00,51.9,34.4,30.00,ESE,106,5.0,13.0,51,0.00,,SKC,0.00,VWS V14.01,2013-03-07 22:39:00,
2013-03-07 16:44:00,51.7,35.1,29.99,East,97,9.0,10.0,53,0.00,,SKC,0.00,VWS V14.01,2013-03-07 22:44:00,
2013-03-07 16:49:00,51.4,34.9,29.99,East,94,9.0,11.0,53,0.00,,SKC,0.00,VWS V14.01,2013-03-07 22:49:00,
2013-03-07 16:54:00,50.9,34.4,30.00,East,98,6.0,6.0,53,0.00,,SKC,0.00,VWS V14.01,2013-03-07 22:54:00,
2013-03-07 16:59:00,50.8,34.8,30.00,ESE,108,2.0,8.0,54,0.00,,SKC,0.00,VWS V14.01,2013-03-07 22:59:00,
2013-03-07 17:04:00,50.9,34.9,30.00,ESE,105,7.0,7.0,54,0.00,,SKC,0.00,VWS V14.01,2013-03-07 23:04:00,
2013-03-07 17:09:00,50.7,34.7,30.00,East,92,4.0,7.0,54,0.00,,SKC,0.00,VWS V14.01,2013-03-07 23:09:00,
2013-03-07 17:14:00,50.3,34.3,30.00,East,93,6.0,6.0,54,0.00,,SKC,0.00,VWS V14.01,2013-03-07 23:14:00,
2013-03-07 17:19:00,49.9,34.4,30.01,East,96,6.0,10.0,55,0.00,,SKC,0.00,VWS V14.01,2013-03-07 23:19:00,
2013-03-07 17:24:00,49.6,34.6,30.00,East,90,6.0,7.0,56,0.00,,SKC,0.00,VWS V14.01,2013-03-07 23:24:00,
2013-03-07 17:29:00,49.2,34.2,30.00,East,91,3.0,8.0,56,0.00,,SKC,0.00,VWS V14.01,2013-03-07 23:29:00,
2013-03-07 17:34:00,49.0,34.5,30.00,East,92,3.0,4.0,57,0.00,,SKC,0.00,VWS V14.01,2013-03-07 23:34:00,
2013-03-07 17:39:00,48.8,34.3,30.00,East,91,6.0,7.0,57,0.00,,SKC,0.00,VWS V14.01,2013-03-07 23:39:00,
2013-03-07 17:44:00,48.6,34.1,30.00,East,84,4.0,5.0,57,0.00,,SKC,0.00,VWS V14.01,2013-03-07 23:44:00,
2013-03-07 17:49:00,48.5,34.4,30.01,East,90,6.0,7.0,58,0.00,,SKC,0.00,VWS V14.01,2013-03-07 23:49:00,
2013-03-07 17:54:00,48.2,34.1,30.00,East,92,4.0,7.0,58,0.00,,SKC,0.00,VWS V14.01,2013-03-07 23:54:00,
2013-03-07 18:02:00,47.7,34.1,30.00,East,93,6.0,6.0,59,0.00,,SKC,0.00,VWS V14.01,2013-03-08 00:02:00,
2013-03-07 18:07:00,47.5,33.9,30.00,East,96,5.0,11.0,59,0.00,,SKC,0.00,VWS V14.01,2013-03-08 00:07:00,
2013-03-07 18:12:00,47.3,33.7,30.00,East,96,4.0,11.0,59,0.00,,SKC,0.00,VWS V14.01,2013-03-08 00:12:00,
2013-03-07 18:17:00,47.0,33.8,30.00,East,92,3.0,6.0,60,0.00,,SKC,0.00,VWS V14.01,2013-03-08 00:17:00,
2013-03-07 18:22:00,46.8,33.7,30.00,East,94,5.0,6.0,60,0.00,,SKC,0.00,VWS V14.01,2013-03-08 00:22:00,
2013-03-07 18:27:00,46.5,33.4,30.00,East,93,2.0,5.0,60,0.00,,SKC,0.00,VWS V14.01,2013-03-08 00:27:00,
2013-03-07 18:32:00,46.2,33.5,30.01,East,93,3.0,5.0,61,0.00,,SKC,0.00,VWS V14.01,2013-03-08 00:32:00,
2013-03-07 18:37:00,45.8,33.1,30.01,East,92,3.0,5.0,61,0.00,,SKC,0.00,VWS V14.01,2013-03-08 00:37:00,
2013-03-07 18:42:00,45.5,33.2,30.01,East,91,4.0,5.0,62,0.00,,SKC,0.00,VWS V14.01,2013-03-08 00:42:00,
2013-03-07 18:47:00,45.1,33.3,30.01,East,92,4.0,5.0,63,0.00,,SKC,0.00,VWS V14.01,2013-03-08 00:47:00,
2013-03-07 18:52:00,45.0,32.8,30.01,East,89,4.0,6.0,62,0.00,,SKC,0.00,VWS V14.01,2013-03-08 00:52:00,
2013-03-07 18:57:00,44.7,32.9,30.01,East,89,3.0,5.0,63,0.00,,SKC,0.00,VWS V14.01,2013-03-08 00:57:00,
2013-03-07 19:02:00,44.5,32.7,30.01,East,88,2.0,5.0,63,0.00,,SKC,0.00,VWS V14.01,2013-03-08 01:02:00,
2013-03-07 19:07:00,44.2,32.4,30.01,East,90,4.0,5.0,63,0.00,,SKC,0.00,VWS V14.01,2013-03-08 01:07:00,
2013-03-07 19:12:00,44.2,32.4,30.02,East,91,4.0,5.0,63,0.00,,SKC,0.00,VWS V14.01,2013-03-08 01:12:00,
2013-03-07 19:17:00,44.0,32.2,30.02,East,90,3.0,5.0,63,0.00,,SKC,0.00,VWS V14.01,2013-03-08 01:17:00,
2013-03-07 19:22:00,43.8,32.0,30.02,East,90,3.0,5.0,63,0.00,,SKC,0.00,VWS V14.01,2013-03-08 01:22:00,
2013-03-07 19:28:00,43.6,31.9,30.02,East,87,3.0,5.0,63,0.00,,SKC,0.00,VWS V14.01,2013-03-08 01:28:00,
2013-03-07 19:33:00,43.5,31.8,30.02,East,88,2.0,5.0,63,0.00,,SKC,0.00,VWS V14.01,2013-03-08 01:33:00,
2013-03-07 19:38:00,43.3,31.6,30.02,East,86,3.0,4.0,63,0.00,,SKC,0.00,VWS V14.01,2013-03-08 01:38:00,
2013-03-07 19:43:00,43.1,31.4,30.02,East,81,4.0,5.0,63,0.00,,SKC,0.00,VWS V14.01,2013-03-08 01:43:00,
2013-03-07 19:48:00,42.6,31.3,30.03,ENE,74,6.0,10.0,64,0.00,,SKC,0.00,VWS V14.01,2013-03-08 01:48:00,
2013-03-07 19:53:00,42.1,30.8,30.02,ENE,74,5.0,10.0,64,0.00,,SKC,0.00,VWS V14.01,2013-03-08 01:53:00,
2013-03-07 19:58:00,41.6,30.7,30.03,ENE,69,6.0,10.0,65,0.00,,SKC,0.00,VWS V14.01,2013-03-08 01:58:00,
2013-03-07 20:03:00,41.1,30.6,30.02,ENE,75,6.0,10.0,66,0.00,,SKC,0.00,VWS V14.01,2013-03-08 02:03:00,
2013-03-07 20:08:00,40.6,30.5,30.03,ENE,71,8.0,9.0,67,0.00,,SKC,0.00,VWS V14.01,2013-03-08 02:08:00,
2013-03-07 20:13:00,40.2,30.1,30.03,ENE,76,7.0,13.0,67,0.00,,SKC,0.00,VWS V14.01,2013-03-08 02:13:00,
2013-03-07 20:18:00,39.8,30.1,30.03,ENE,74,6.0,9.0,68,0.00,,SKC,0.00,VWS V14.01,2013-03-08 02:18:00,
2013-03-07 20:23:00,39.4,30.1,30.03,ENE,73,4.0,9.0,69,0.00,,SKC,0.00,VWS V14.01,2013-03-08 02:23:00,
2013-03-07 20:28:00,39.1,29.8,30.03,ENE,74,6.0,9.0,69,0.00,,SKC,0.00,VWS V14.01,2013-03-08 02:28:00,
2013-03-07 20:33:00,38.8,29.9,30.03,ENE,75,5.0,9.0,70,0.00,,SKC,0.00,VWS V14.01,2013-03-08 02:33:00,
2013-03-07 20:38:00,38.6,29.7,30.03,ENE,74,5.0,7.0,70,0.00,,SKC,0.00,VWS V14.01,2013-03-08 02:38:00,
2013-03-07 20:43:00,38.2,29.6,30.03,ENE,76,5.0,7.0,71,0.00,,SKC,0.00,VWS V14.01,2013-03-08 02:43:00,
2013-03-07 20:48:00,38.0,29.5,30.03,ENE,75,4.0,7.0,71,0.00,,SKC,0.00,VWS V14.01,2013-03-08 02:48:00,
2013-03-07 20:53:00,37.7,29.5,30.03,ENE,76,5.0,7.0,72,0.00,,SKC,0.00,VWS V14.01,2013-03-08 02:53:00,
2013-03-07 20:58:00,37.5,29.3,30.03,ENE,73,5.0,6.0,72,0.00,,SKC,0.00,VWS V14.01,2013-03-08 02:58:00,
2013-03-07 21:03:00,37.3,29.5,30.03,ENE,76,5.0,6.0,73,0.00,,SKC,0.00,VWS V14.01,2013-03-08 03:03:00,
2013-03-07 21:08:00,37.2,29.4,30.03,ENE,76,5.0,6.0,73,0.00,,SKC,0.00,VWS V14.01,2013-03-08 03:08:00,
2013-03-07 21:13:00,36.9,29.1,30.03,ENE,76,5.0,6.0,73,0.00,,SKC,0.00,VWS V14.01,2013-03-08 03:13:00,
2013-03-07 21:18:00,36.7,29.2,30.04,ENE,76,6.0,6.0,74,0.00,,SKC,0.00,VWS V14.01,2013-03-08 03:18:00,
2013-03-07 21:23:00,36.5,29.0,30.03,ENE,76,4.0,6.0,74,0.00,,SKC,0.00,VWS V14.01,2013-03-08 03:23:00,
2013-03-07 21:28:00,36.4,28.9,30.03,ENE,75,4.0,6.0,74,0.00,,SKC,0.00,VWS V14.01,2013-03-08 03:28:00,
2013-03-07 21:33:00,36.4,28.9,30.04,ENE,76,6.0,6.0,74,0.00,,SKC,0.00,VWS V14.01,2013-03-08 03:33:00,
2013-03-07 21:38:00,36.4,28.9,30.03,East,85,5.0,7.0,74,0.00,,SKC,0.00,VWS V14.01,2013-03-08 03:38:00,
2013-03-07 21:43:00,36.3,29.1,30.03,East,87,4.0,9.0,75,0.00,,SKC,0.00,VWS V14.01,2013-03-08 03:43:00,
2013-03-07 21:48:00,36.2,29.0,30.04,East,86,5.0,6.0,75,0.00,,SKC,0.00,VWS V14.01,2013-03-08 03:48:00,
2013-03-07 21:53:00,36.2,29.0,30.04,East,84,5.0,6.0,75,0.00,,SKC,0.00,VWS V14.01,2013-03-08 03:53:00,
2013-03-07 21:59:00,36.2,29.0,30.04,East,81,5.0,6.0,75,0.00,,SKC,0.00,VWS V14.01,2013-03-08 03:59:00,
2013-03-07 22:03:00,36.1,29.0,30.04,East,84,4.0,9.0,75,0.00,,SKC,0.00,VWS V14.01,2013-03-08 04:03:00,
2013-03-07 22:08:00,36.2,29.0,30.05,East,85,5.0,9.0,75,0.00,,SKC,0.00,VWS V14.01,2013-03-08 04:08:00,
2013-03-07 22:13:00,36.2,29.0,30.05,East,84,5.0,10.0,75,0.00,,SKC,0.00,VWS V14.01,2013-03-08 04:13:00,
2013-03-07 22:19:00,36.3,29.1,30.05,East,82,4.0,6.0,75,0.00,,SKC,0.00,VWS V14.01,2013-03-08 04:19:00,
2013-03-07 22:24:00,36.2,29.0,30.05,East,81,4.0,6.0,75,0.00,,SKC,0.00,VWS V14.01,2013-03-08 04:24:00,
2013-03-07 22:29:00,36.1,29.0,30.05,East,80,4.0,6.0,75,0.00,,SKC,0.00,VWS V14.01,2013-03-08 04:29:00,
2013-03-07 22:34:00,36.0,28.9,30.05,East,80,4.0,6.0,75,0.00,,SKC,0.00,VWS V14.01,2013-03-08 04:34:00,
2013-03-07 22:39:00,36.0,28.9,30.05,East,80,4.0,7.0,75,0.00,,SKC,0.00,VWS V14.01,2013-03-08 04:39:00,
2013-03-07 22:44:00,36.0,28.9,30.05,East,79,5.0,7.0,75,0.00,,SKC,0.00,VWS V14.01,2013-03-08 04:44:00,
2013-03-07 22:49:00,36.0,29.2,30.05,East,80,4.0,6.0,76,0.00,,SKC,0.00,VWS V14.01,2013-03-08 04:49:00,
2013-03-07 22:54:00,35.9,29.1,30.05,East,79,5.0,6.0,76,0.00,,SKC,0.00,VWS V14.01,2013-03-08 04:54:00,
2013-03-07 22:59:00,35.8,29.0,30.06,East,80,3.0,5.0,76,0.00,,SKC,0.00,VWS V14.01,2013-03-08 04:59:00,
2013-03-07 23:00:00,35.8,29.0,30.06,East,80,4.0,5.0,76,0.00,,SKC,0.00,VWS V14.01,2013-03-08 05:00:00,
2013-03-07 23:03:00,35.7,28.9,30.05,East,80,5.0,5.0,76,0.00,,SKC,0.00,VWS V14.01,2013-03-08 05:03:00,
2013-03-07 23:08:00,35.7,28.9,30.06,East,80,3.0,5.0,76,0.00,,SKC,0.00,VWS V14.01,2013-03-08 05:08:00,
2013-03-07 23:13:00,35.6,28.8,30.05,East,80,3.0,5.0,76,0.00,,SKC,0.00,VWS V14.01,2013-03-08 05:13:00,
2013-03-07 23:18:00,35.6,28.8,30.06,East,80,3.0,4.0,76,0.00,,SKC,0.00,VWS V14.01,2013-03-08 05:18:00,
2013-03-07 23:23:00,35.6,28.8,30.06,East,80,3.0,4.0,76,0.00,,SKC,0.00,VWS V14.01,2013-03-08 05:23:00,
2013-03-07 23:28:00,35.7,28.9,30.06,East,79,3.0,4.0,76,0.00,,SKC,0.00,VWS V14.01,2013-03-08 05:28:00,
2013-03-07 23:33:00,35.7,28.9,30.05,East,80,2.0,4.0,76,0.00,,SKC,0.00,VWS V14.01,2013-03-08 05:33:00,
2013-03-07 23:38:00,35.8,29.0,30.06,East,79,4.0,5.0,76,0.00,,SKC,0.00,VWS V14.01,2013-03-08 05:38:00,
2013-03-07 23:43:00,35.9,29.1,30.05,East,88,3.0,8.0,76,0.00,,SKC,0.00,VWS V14.01,2013-03-08 05:43:00,
2013-03-07 23:48:00,36.0,29.2,30.05,East,86,3.0,6.0,76,0.00,,SKC,0.00,VWS V14.01,2013-03-08 05:48:00,
2013-03-07 23:53:00,36.0,28.9,30.05,East,84,4.0,6.0,75,0.00,,SKC,0.00,VWS V14.01,2013-03-08 05:53:00,
2013-03-07 23:58:00,36.0,28.9,30.05,East,86,3.0,6.0,75,0.00,,SKC,0.00,VWS V14.01,2013-03-08 05:58:00,